Starlink 6037

operational
NORAD ID: 56461 Int'l Des: 2023-064 Owner: SPXS Country: US Constellation: starlink
LEOCIRCULAR

About Starlink 6037

Description loading...

Live Position

Loading 3D Globe...

Upcoming Passes

Altitude History

Altitude vs Time

uPlot chart will show altitude changes over time

Two-Line Element Set

1 56461U 23064P 25348.99589272 .00000285 00000-0 31704-4 0 9994
2 56461 70.0002 357.8415 0003020 271.7854 88.2959 14.98332529142560
Epoch: Dec 14, 2025 • Age: 10 hours

Current Status

Altitude 583.2 km
Velocity 7.57 km/s
Sub-Earth Point 58.37°N, 93.95°W
Launch Date May 10, 2023
Age 2.5 years
Type internet

Technical Details

Classification Payload
Mass 305.00 kg
Dry Mass 290.00 kg
Total Mass 305.00 kg
Length 0.20 m
Diameter 2.80 m
Span 9.00 m
Shape Box + pan
Manufacturer SPXS
Bus Type Starlink
Phase Status In Orbit
Owner/State SPXS/US

Large Constellations

Loading constellations...